TimePST,TemperatureF,Dew PointF,Humidity,Sea Level PressureIn,VisibilityMPH,Wind Direction,Wind SpeedMPH,Gust SpeedMPH,PrecipitationIn,Events,Conditions,WindDirDegrees,DateUTC
12:15 AM,33.8,32.0,93,30.21,8.0,NE,3.5,-,N/A,,Scattered Clouds,40,2013-01-18 08:15:00
12:55 AM,32.0,32.0,100,30.21,8.0,Calm,Calm,-,N/A,,Partly Cloudy,0,2013-01-18 08:55:00
1:15 AM,32.0,32.0,100,30.21,9.0,East,3.5,-,N/A,,Clear,80,2013-01-18 09:15:00
1:35 AM,32.0,30.2,93,30.21,8.0,Calm,Calm,-,N/A,,Clear,0,2013-01-18 09:35:00
1:55 AM,30.2,28.4,93,30.21,8.0,Calm,Calm,-,N/A,,Partly Cloudy,0,2013-01-18 09:55:00
2:15 AM,32.0,30.2,93,30.21,8.0,Calm,Calm,-,N/A,,Scattered Clouds,0,2013-01-18 10:15:00
2:35 AM,33.8,32.0,93,30.21,10.0,ENE,4.6,-,N/A,,Partly Cloudy,70,2013-01-18 10:35:00
2:55 AM,39.2,32.0,75,30.21,9.0,East,4.6,-,N/A,,Partly Cloudy,90,2013-01-18 10:55:00
3:15 AM,37.4,32.0,81,30.20,9.0,East,3.5,-,N/A,,Partly Cloudy,100,2013-01-18 11:15:00
3:35 AM,32.0,28.4,87,30.20,9.0,Calm,Calm,-,N/A,,Clear,0,2013-01-18 11:35:00
3:55 AM,32.0,28.4,87,30.20,7.0,Calm,Calm,-,N/A,,Clear,0,2013-01-18 11:55:00
4:15 AM,32.0,30.2,93,30.20,7.0,Calm,Calm,-,N/A,,Partly Cloudy,0,2013-01-18 12:15:00
4:55 AM,35.6,32.0,87,30.20,7.0,ESE,4.6,-,N/A,,Partly Cloudy,120,2013-01-18 12:55:00
5:15 AM,35.6,32.0,87,30.20,7.0,East,3.5,-,N/A,,Partly Cloudy,100,2013-01-18 13:15:00
5:35 AM,35.6,32.0,87,30.20,7.0,East,3.5,-,N/A,,Partly Cloudy,100,2013-01-18 13:35:00
5:55 AM,35.6,32.0,87,30.20,8.0,East,3.5,-,N/A,,Partly Cloudy,100,2013-01-18 13:55:00
6:15 AM,33.8,32.0,93,30.20,8.0,East,3.5,-,N/A,,Clear,90,2013-01-18 14:15:00
6:35 AM,32.0,30.2,93,30.20,10.0,ENE,5.8,-,N/A,,Clear,70,2013-01-18 14:35:00
6:55 AM,33.8,30.2,87,30.21,10.0,East,4.6,-,N/A,,Partly Cloudy,100,2013-01-18 14:55:00
7:15 AM,33.8,32.0,93,30.21,10.0,East,5.8,-,N/A,,Partly Cloudy,80,2013-01-18 15:15:00
7:35 AM,33.8,32.0,93,30.22,7.0,East,5.8,-,N/A,,Clear,90,2013-01-18 15:35:00
7:55 AM,35.6,32.0,87,30.23,6.0,East,3.5,-,N/A,,Clear,90,2013-01-18 15:55:00
8:15 AM,37.4,32.0,81,30.23,7.0,East,3.5,-,N/A,,Clear,80,2013-01-18 16:15:00
8:35 AM,37.4,35.6,93,30.24,7.0,East,3.5,-,N/A,,Clear,80,2013-01-18 16:35:00
8:55 AM,41.0,35.6,81,30.25,7.0,East,5.8,-,N/A,,Clear,90,2013-01-18 16:55:00
9:15 AM,42.8,37.4,81,30.25,8.0,ESE,4.6,-,N/A,,Clear,110,2013-01-18 17:15:00
9:35 AM,44.6,37.4,76,30.25,8.0,SE,5.8,-,N/A,,Clear,140,2013-01-18 17:35:00
9:55 AM,46.4,37.4,71,30.26,7.0,SE,5.8,-,N/A,,Clear,140,2013-01-18 17:55:00
10:15 AM,48.2,39.2,71,30.25,8.0,SSE,5.8,-,N/A,,Clear,150,2013-01-18 18:15:00
10:35 AM,48.2,39.2,71,30.25,8.0,SSE,5.8,-,N/A,,Clear,150,2013-01-18 18:35:00
10:55 AM,50.0,39.2,66,30.24,9.0,SSE,8.1,-,N/A,,Clear,150,2013-01-18 18:55:00
11:15 AM,51.8,39.2,62,30.23,9.0,SSE,5.8,-,N/A,,Clear,160,2013-01-18 19:15:00
11:35 AM,53.6,39.2,58,30.22,9.0,SSE,8.1,-,N/A,,Clear,160,2013-01-18 19:35:00
11:55 AM,53.6,39.2,58,30.22,10.0,SSE,8.1,-,N/A,,Clear,150,2013-01-18 19:55:00
12:15 PM,55.4,39.2,54,30.21,10.0,SE,8.1,-,N/A,,Clear,140,2013-01-18 20:15:00
12:35 PM,55.4,39.2,54,30.19,10.0,SSE,9.2,-,N/A,,Clear,160,2013-01-18 20:35:00
12:55 PM,57.2,39.2,51,30.18,10.0,SSE,10.4,-,N/A,,Clear,160,2013-01-18 20:55:00
1:15 PM,57.2,39.2,51,30.18,9.0,SE,8.1,-,N/A,,Clear,140,2013-01-18 21:15:00
1:35 PM,57.2,39.2,51,30.17,10.0,SSE,11.5,-,N/A,,Clear,160,2013-01-18 21:35:00
1:55 PM,57.2,39.2,51,30.17,10.0,SSE,9.2,-,N/A,,Clear,150,2013-01-18 21:55:00
2:15 PM,59.0,37.4,45,30.17,10.0,SSE,8.1,-,N/A,,Clear,150,2013-01-18 22:15:00
2:35 PM,59.0,39.2,48,30.16,10.0,SE,6.9,-,N/A,,Clear,140,2013-01-18 22:35:00
2:55 PM,59.0,37.4,45,30.16,10.0,SSE,10.4,-,N/A,,Clear,150,2013-01-18 22:55:00
3:15 PM,59.0,37.4,45,30.16,10.0,SSE,10.4,-,N/A,,Clear,160,2013-01-18 23:15:00
3:35 PM,59.0,37.4,45,30.16,10.0,SSE,6.9,-,N/A,,Clear,150,2013-01-18 23:35:00
3:55 PM,57.2,35.6,44,30.15,10.0,SSE,9.2,-,N/A,,Clear,150,2013-01-18 23:55:00
4:15 PM,57.2,35.6,44,30.15,10.0,SSE,9.2,-,N/A,,Clear,150,2013-01-19 00:15:00
4:35 PM,55.4,35.6,47,30.16,10.0,SSE,8.1,-,N/A,,Clear,150,2013-01-19 00:35:00
4:55 PM,51.8,37.4,58,30.16,10.0,ESE,3.5,-,N/A,,Clear,120,2013-01-19 00:55:00
5:15 PM,50.0,37.4,62,30.16,10.0,ESE,3.5,-,N/A,,Clear,110,2013-01-19 01:15:00
5:55 PM,48.2,37.4,66,30.17,10.0,East,4.6,-,N/A,,Clear,100,2013-01-19 01:55:00
6:15 PM,46.4,37.4,71,30.17,10.0,ENE,4.6,-,N/A,,Clear,70,2013-01-19 02:15:00
6:55 PM,44.6,35.6,71,30.17,10.0,East,4.6,-,N/A,,Clear,100,2013-01-19 02:55:00
7:15 PM,44.6,33.8,66,30.17,10.0,East,4.6,-,N/A,,Clear,80,2013-01-19 03:15:00
7:35 PM,41.0,33.8,76,30.17,10.0,East,3.5,-,N/A,,Clear,90,2013-01-19 03:35:00
7:55 PM,44.6,32.0,61,30.18,10.0,East,4.6,-,N/A,,Clear,80,2013-01-19 03:55:00
8:15 PM,41.0,32.0,70,30.18,10.0,East,4.6,-,N/A,,Clear,80,2013-01-19 04:15:00
8:35 PM,41.0,32.0,70,30.18,10.0,Calm,Calm,-,N/A,,Clear,0,2013-01-19 04:35:00
8:55 PM,39.2,32.0,75,30.18,10.0,Calm,Calm,-,N/A,,Clear,0,2013-01-19 04:55:00
9:15 PM,39.2,32.0,75,30.18,10.0,Calm,Calm,-,N/A,,Clear,0,2013-01-19 05:15:00
9:35 PM,35.6,32.0,87,30.18,10.0,Calm,Calm,-,N/A,,Clear,0,2013-01-19 05:35:00
9:55 PM,37.4,32.0,81,30.18,10.0,Calm,Calm,-,N/A,,Clear,0,2013-01-19 05:55:00
10:15 PM,37.4,32.0,81,30.19,10.0,Calm,Calm,-,N/A,,Clear,0,2013-01-19 06:15:00
10:35 PM,35.6,32.0,87,30.19,10.0,Calm,Calm,-,N/A,,Clear,0,2013-01-19 06:35:00
10:55 PM,33.8,32.0,93,30.19,10.0,Calm,Calm,-,N/A,,Clear,0,2013-01-19 06:55:00
11:15 PM,32.0,32.0,100,30.19,10.0,Calm,Calm,-,N/A,,Clear,0,2013-01-19 07:15:00
11:35 PM,33.8,32.0,93,30.19,10.0,Calm,Calm,-,N/A,,Clear,0,2013-01-19 07:35:00
11:55 PM,33.8,32.0,93,30.19,10.0,Calm,Calm,-,N/A,,Clear,0,2013-01-19 07:55:00